Weather History for KCQX - November, 2011

Change the Weather History Date:

Tuesday, November 15, 2011

  Actual Average Record
Temperature  
Mean Temperature 58 °F -  
Max Temperature 62 °F 48 °F 63 °F (1993)
Min Temperature 54 °F 36 °F 28 °F (1996)
Degree Days  
Heating Degree Days 7    
Growing Degree Days 8 (Base 50)    
Moisture  
Dew Point 54 °F    
Average Humidity 88    
Maximum Humidity 97    
Minimum Humidity 75    
Precipitation  
Precipitation 0.01 in - - ()
Sea Level Pressure  
Sea Level Pressure 29.84 in    
Wind  
Wind Speed 9 mph (SW)    
Max Wind Speed 15 mph    
Max Gust Speed 26 mph    
Visibility 9 miles    
Events Rain    
Averages and records for this station are not official NWS values.
T = Trace of Precipitation, MM = Missing Value Source: NWS Daily Summary

Daily Weather History Graph

Daily Weather History Graph

Search for Another Location

Airport or City:

Trip Planner

Search our weather history database for the weather conditions in past years. The results will help you decide how hot, cold, wet, or windy it might be!

Date:

Astronomy

Nov. 15, 2011 Rise Set
Actual Time 6:28 AM EST 4:19 PM EST
Civil Twilight 5:58 AM EST 4:49 PM EST
Nautical Twilight 5:25 AM EST 5:23 PM EST
Astronomical Twilight 4:52 AM EST 5:56 PM EST
Moon 8:25 PM EST (11/15) 10:26 AM EST (11/15)
Length of Visible Light 10h 50m
Length of Day
9h 51m
Waning Gibbous, 79% of the Moon is Illuminated
Nov 15
Waning Gibbous
Nov 18
Last Quarter
Nov 25
New
Dec 2
First Quarter
Dec 10
Full

Hourly Weather History & Observations

Time (EST) Temp. Dew Point Humidity Pressure Visibility Wind Dir Wind Speed Gust Speed Precip Events Conditions
12:52 AM 57.9 °F 54.0 °F 87% 29.79 in 10.0 mi SW 15.0 mph 26.5 mph N/A   Clear
1:52 AM 57.0 °F 54.0 °F 89% 29.78 in 8.0 mi SW 12.7 mph 23.0 mph N/A   Clear
2:52 AM 57.0 °F 54.0 °F 89% 29.78 in 8.0 mi SW 12.7 mph 23.0 mph N/A   Mostly Cloudy
4:52 AM 55.9 °F 54.0 °F 93% 29.77 in 7.0 mi SW 11.5 mph 18.4 mph N/A   Mostly Cloudy
5:40 AM 55.4 °F 53.6 °F 94% 29.76 in 7.0 mi SW 10.4 mph 18.4 mph N/A   Overcast
5:52 AM 55.9 °F 54.0 °F 93% 29.76 in 7.0 mi SW 10.4 mph 20.7 mph N/A   Overcast
6:52 AM 55.9 °F 54.0 °F 93% 29.77 in 6.0 mi SW 9.2 mph 20.7 mph N/A   Mostly Cloudy
7:00 AM 55.4 °F 53.6 °F 94% 29.77 in 6.0 mi SW 9.2 mph 18.4 mph N/A   Scattered Clouds
8:52 AM 59.0 °F 54.0 °F 83% 29.79 in 7.0 mi SW 10.4 mph 19.6 mph N/A   Clear
10:52 AM 62.1 °F 55.0 °F 78% 29.80 in 10.0 mi WSW 9.2 mph 17.3 mph N/A   Clear
11:52 AM 62.1 °F 55.0 °F 78% 29.79 in 10.0 mi WSW 9.2 mph 16.1 mph N/A   Scattered Clouds
12:52 PM 61.0 °F 53.1 °F 75% 29.78 in 10.0 mi SW 9.2 mph 24.2 mph N/A   Overcast
1:52 PM 60.1 °F 53.1 °F 78% 29.79 in 10.0 mi WSW 8.1 mph - N/A   Overcast
2:52 PM 59.0 °F 53.1 °F 81% 29.84 in 10.0 mi WSW 6.9 mph - N/A   Overcast
4:52 PM 55.9 °F 53.1 °F 90% 29.88 in 10.0 mi SW 4.6 mph - N/A   Overcast
5:52 PM 57.0 °F 54.0 °F 89% 29.89 in 10.0 mi Calm Calm - N/A   Overcast
6:52 PM 55.9 °F 54.0 °F 93% 29.91 in 10.0 mi Calm Calm - N/A   Overcast
7:52 PM 55.9 °F 53.1 °F 90% 29.93 in 10.0 mi Calm Calm - 0.00 in   Overcast
8:52 PM 57.0 °F 53.1 °F 87% 29.95 in 10.0 mi Calm Calm - 0.00 in Rain Light Rain
9:52 PM 55.0 °F 53.1 °F 93% 29.96 in 10.0 mi Calm Calm - 0.00 in   Overcast
10:52 PM 54.0 °F 53.1 °F 97% 29.96 in 8.0 mi Calm Calm - 0.00 in   Scattered Clouds
11:52 PM 54.0 °F 53.1 °F 97% 29.98 in 10.0 mi Calm Calm - N/A   Overcast